Tracking 35237 objects as of 6-Sep-2026
HD Live streaming from Space Station
objects crossing your sky now

FREGAT DEB

Track FREGAT DEB now!
10-day predictions


NORAD ID: 45881
Int'l Code: 2011-037DA
Launch date: July 18, 2011
Source: Commonwealth of Independent States (former USSR) (CIS)
Launch site: TYURATAM MISSILE AND SPACE COMPLEX (TTMTR)

Note: This is SATELLITE DEBRIS
Your satellite tracking list
Your tracking list is empty




NASA's NSSDC Master Catalog

Two Line Element Set (TLE):
1 45881U 11037DA  20262.09742081 -.00024883  00000-0 -23871+0 0  9998
2 45881  51.6424 192.3726 1792747 162.9176 204.0933 10.05443616  7142
Source of the keplerian elements: AFSPC